Ellington Field, TX

12:17 PM CDT on October 20, 2019 (GMT -0500)
Ellington

Weather History for KEFD - September, 2019

Change the Weather History Date:

Thursday, September 19, 2019

  Actual Average Record
Temperature  
Mean Temperature 76 °F -  
Max Temperature 82 °F 86 °F 109 °F (1997)
Min Temperature 69 °F 69 °F 66 °F (1999)
Cooling Degree Days 10    
Growing Degree Days 26 (Base 50)    
Moisture  
Dew Point 73 °F    
Average Humidity 91    
Maximum Humidity 100    
Minimum Humidity 83    
Precipitation  
Precipitation 0.00 in - - ()
Sea Level Pressure  
Sea Level Pressure 29.88 in    
Wind  
Wind Speed 7 mph ()    
Max Wind Speed 13 mph    
Max Gust Speed 22 mph    
Visibility 7.8 miles    
Events Rain , Thunderstorm    
Averages and records for this station are not official NWS values.
T = Trace of Precipitation, MM = Missing Value Source: Averaged Metar Reports

Daily Weather History Graph

Daily Weather History Graph

Search for Another Location

Airport or City:

Astronomy

Sep. 19, 2019 Rise Set
Actual Time 7:07 AM CDT 7:21 PM CDT
Civil Twilight 6:43 AM CDT 7:44 PM CDT
Nautical Twilight 6:15 AM CDT 8:12 PM CDT
Astronomical Twilight 5:47 AM CDT 8:40 PM CDT
Moon 10:53 PM CDT (9/19) 11:50 AM CDT (9/19)
Length of Visible Light 13h 01m
Length of Day
12h 13m
Waning Gibbous, 74% of the Moon is Illuminated
Sep 19
Waning Gibbous
Sep 21
Last Quarter
Sep 28
New
Oct 5
First Quarter
Oct 13
Full

Hourly Weather History & Observations

Time (CDT) Temp. Heat Index Dew Point Humidity Pressure Visibility Wind Dir Wind Speed Gust Speed Precip Events Conditions
1:50 AM 77.0 °F - 75.2 °F 94% 29.83 in 9.0 mi SSW 10.4 mph - N/A   Overcast
4:50 AM 78.8 °F - 77.0 °F 94% 29.80 in 7.0 mi SSW 9.2 mph - N/A   Overcast
5:50 AM 78.8 °F - 77.0 °F 94% 29.82 in 7.0 mi SSW 6.9 mph - N/A   Overcast
6:50 AM 78.8 °F - 77.0 °F 94% 29.83 in 7.0 mi SSW 9.2 mph - N/A   Overcast
7:50 AM 78.8 °F - 77.0 °F 94% 29.83 in 7.0 mi SSW 9.2 mph - N/A   Overcast
8:50 AM 78.8 °F - 77.0 °F 94% 29.84 in 8.0 mi South 11.5 mph - N/A   Overcast
9:50 AM 82.4 °F 90.9 °F 77.0 °F 84% 29.87 in 8.0 mi ESE 6.9 mph - N/A   Overcast
10:50 AM 82.4 °F 90.9 °F 77.0 °F 84% 29.92 in 6.0 mi North 10.4 mph - N/A   Overcast
11:50 AM 71.6 °F - 69.8 °F 94% 29.90 in 6.0 mi NE 11.5 mph 21.9 mph N/A   Overcast
12:50 PM 75.2 °F - 71.6 °F 89% 29.92 in 2.0 mi ENE 3.5 mph - N/A Rain , Thunderstorm Thunderstorms and Rain
1:50 PM 71.6 °F - 71.6 °F 100% 29.90 in 5.0 mi SE 12.7 mph - N/A Rain , Thunderstorm Thunderstorms and Rain
2:50 PM 73.4 °F - 71.6 °F 94% 29.92 in 3.0 mi SSE 10.4 mph - N/A Rain Heavy Rain
3:50 PM 71.6 °F - 69.8 °F 94% 29.90 in 10.0 mi SE 6.9 mph - N/A Rain Light Rain
4:50 PM 69.8 °F - 68.0 °F 94% 29.89 in 10.0 mi SE 6.9 mph - N/A Rain Light Rain
5:50 PM 71.6 °F - 68.0 °F 88% 29.88 in 10.0 mi SE 6.9 mph - N/A   Overcast
6:50 PM 71.6 °F - 68.0 °F 88% 29.89 in 10.0 mi SE 3.5 mph - N/A   Overcast
8:50 PM 73.4 °F - 69.8 °F 88% 29.89 in 10.0 mi Calm Calm - N/A   Overcast
9:50 PM 73.4 °F - 69.8 °F 88% 29.90 in 10.0 mi Calm Calm - N/A   Overcast
10:50 PM 75.2 °F - 69.8 °F 83% 29.91 in 10.0 mi SE 4.6 mph - N/A   Mostly Cloudy
11:50 PM 77.0 °F - 73.4 °F 89% 29.92 in 10.0 mi SE 4.6 mph - N/A   Mostly Cloudy